Lamezia Terme, Italy

6:21 AM CEST on May 25, 2017 (GMT +0200)
Terme

Weather History for LICA - April, 2013

Change the Weather History Date:

Thursday, April 4, 2013

  Actual Average Record
Temperature  
Mean Temperature 58 °F -  
Max Temperature 69 °F 63 °F 75 °F (1998)
Min Temperature 48 °F 49 °F 41 °F (1999)
Degree Days  
Heating Degree Days 6    
Growing Degree Days 8 (Base 50)    
Moisture  
Dew Point 49 °F    
Average Humidity 71    
Maximum Humidity 94    
Minimum Humidity 40    
Precipitation  
Precipitation 0.00 in - - ()
Sea Level Pressure  
Sea Level Pressure 29.81 in    
Wind  
Wind Speed 11 mph ()    
Max Wind Speed 34 mph    
Max Gust Speed 46 mph    
Visibility 6.2 miles    
Events      
Averages and records for this station are not official NWS values.
T = Trace of Precipitation, MM = Missing Value Source: Averaged Metar Reports

Daily Weather History Graph

Daily Weather History Graph

Search for Another Location

Airport or City:

Trip Planner

Search our weather history database for the weather conditions in past years. The results will help you decide how hot, cold, wet, or windy it might be!

Date:

Astronomy

Apr. 04, 2013 Rise Set
Actual Time 6:35 AM CEST 7:21 PM CEST
Civil Twilight 6:08 AM CEST 7:48 PM CEST
Nautical Twilight 5:36 AM CEST 8:20 PM CEST
Astronomical Twilight 5:03 AM CEST 8:53 PM CEST
Moon 2:45 AM CEST (4/4) 1:23 PM CEST (4/4)
Length of Visible Light 13h 40m
Length of Day
12h 46m
Last Quarter, 36% of the Moon is Illuminated
Apr 4
Last Quarter
Apr 10
New
Apr 18
First Quarter
Apr 25
Full
May 2
Last Quarter

Hourly Weather History & Observations

Time (CEST) Temp. Dew Point Humidity Pressure Visibility Wind Dir Wind Speed Gust Speed Precip Events Conditions
12:50 AM 55.4 °F 50.0 °F 82% 29.86 in 6.2 mi West 10.4 mph - N/A   Scattered Clouds
2:50 AM 55.4 °F 50.0 °F 82% 29.86 in 6.2 mi West 8.1 mph - N/A   Mostly Cloudy
3:50 AM 53.6 °F 50.0 °F 88% 29.86 in 6.2 mi West 5.8 mph - N/A   Mostly Cloudy
4:50 AM 53.6 °F 50.0 °F 88% 29.86 in 6.2 mi Variable 2.3 mph - N/A   Mostly Cloudy
5:50 AM 50.0 °F 46.4 °F 87% 29.86 in 6.2 mi Variable 3.5 mph - N/A   Partly Cloudy
6:50 AM 48.2 °F 46.4 °F 93% 29.86 in 6.2 mi Variable 2.3 mph - N/A   Partly Cloudy
7:50 AM 51.8 °F 50.0 °F 94% 29.89 in - Variable 3.5 mph - N/A   Clear
8:50 AM 57.2 °F 51.8 °F 82% 29.89 in - East 6.9 mph - N/A   Clear
9:50 AM 59.0 °F 51.8 °F 77% 29.86 in - ENE 5.8 mph - N/A   Clear
10:50 AM 64.4 °F 46.4 °F 52% 29.86 in - ENE 5.8 mph - N/A   Clear
11:50 AM 68.0 °F 44.6 °F 43% 29.86 in - East 11.5 mph - N/A   Clear
12:50 PM 69.8 °F 44.6 °F 40% 29.83 in - East 17.3 mph - N/A   Clear
1:50 PM 68.0 °F 44.6 °F 43% 29.83 in - East 21.9 mph - N/A   Clear
2:50 PM 66.2 °F 42.8 °F 43% 29.77 in - East 27.6 mph - N/A   Clear
4:50 PM 62.6 °F 50.0 °F 63% 29.77 in - East 29.9 mph - N/A   Clear
5:50 PM 60.8 °F 50.0 °F 68% 29.74 in - East 27.6 mph 39.1 mph N/A   Clear
6:50 PM 59.0 °F 50.0 °F 72% 29.74 in - East 28.8 mph - N/A   Clear
7:50 PM 59.0 °F 51.8 °F 77% 29.74 in 6.2 mi East 28.8 mph 40.3 mph N/A   Scattered Clouds
9:50 PM 59.0 °F 51.8 °F 77% 29.74 in 6.2 mi East 31.1 mph 42.6 mph N/A   Scattered Clouds
10:50 PM 59.0 °F 51.8 °F 77% 29.74 in 6.2 mi East 29.9 mph 41.4 mph N/A   Scattered Clouds
11:50 PM 59.0 °F 50.0 °F 72% 29.68 in 6.2 mi East 34.5 mph 46.0 mph N/A   Scattered Clouds